15min,AgWx,beryljct,423,07MAY2019:00:00:00,48.9,12.88,47.1,48.3,46.1,48.3,45.3,68,75,57,0.659,36.0,37.8,33.8,1.754,2.6,203,5.4,5.1,-0.00008,-0.00008,57.0,56.3,10,0,0,41.2,14.08,0.00,0.00
15min,AgWx,beryljct,423,07MAY2019:00:15:00,49.1,12.86,51.9,51.1,48.6,51.1,47.6,57,64,46,0.582,33.9,35.9,30.8,2.411,2.4,182,18,4.4,-0.00006,-0.00005,56.9,56.3,10,0,0,43.4,14.08,0.00,0.00
15min,AgWx,beryljct,423,07MAY2019:00:30:00,49.6,12.86,50.3,49.7,50.3,51.3,49.3,49,53,45,0.613,31.9,33.0,30.6,3.135,3.1,171,5.8,4.0,0.00004,0.00009,56.7,56.2,10,0,0,44.5,14.08,0.00,0.00
15min,AgWx,beryljct,423,07MAY2019:00:45:00,49.7,12.84,48.2,48.8,49.6,50.4,48.4,50,56,47,0.618,31.8,33.6,30.8,4.932,4.1,171,8.3,5.3,0.00010,0.00017,56.5,56.2,10,0,0,43.4,14.08,0.00,0.00
15min,AgWx,beryljct,423,07MAY2019:01:00:00,49.5,12.86,47.6,47.0,47.8,48.8,46.7,54,57,52,0.608,32.0,32.6,31.7,3.814,4.1,178,3.5,4.9,0.00008,0.00014,56.4,56.2,10,0,0,42.1,14.08,0.00,0.00
15min,AgWx,beryljct,423,07MAY2019:01:15:00,49.0,12.84,44.8,45.7,46.6,47.8,44.7,57,64,53,0.641,32.2,33.3,31.4,3.595,3.6,179,2.4,4.6,0.00003,0.00007,56.2,56.1,10,0,0,41.0,14.08,0.00,0.00
15min,AgWx,beryljct,423,07MAY2019:01:30:00,48.4,12.84,46.2,46.6,46.4,47.3,45.1,59,63,55,0.624,32.6,33.4,32.0,5.656,4.4,186,3.8,5.9,0.00007,0.00011,56.0,56.1,10,0,0,41.1,14.08,0.00,0.00
15min,AgWx,beryljct,423,07MAY2019:01:45:00,48.4,12.84,49.5,49.3,47.7,49.3,46.4,54,59,50,0.592,32.0,32.8,31.2,6.379,6.1,203,5.0,7.8,0.00018,0.00025,55.9,56.1,10,0,0,42.5,14.08,0.00,0.00
15min,AgWx,beryljct,423,07MAY2019:02:00:00,49.1,12.83,50.0,50.2,50.0,50.6,49.3,48,50,46,0.593,31.0,31.4,30.5,5.349,5.4,197,7.5,7.3,0.00020,0.00029,55.8,56.0,10,0,0,44.6,14.08,0.00,0.00
15min,AgWx,beryljct,423,07MAY2019:02:15:00,49.4,12.83,47.9,48.2,49.3,50.1,48.1,50,53,48,0.604,31.2,31.8,30.7,3.639,3.9,185,6.1,5.6,0.00010,0.00016,55.6,56.0,10,0,0,43.2,14.08,0.00,0.00
15min,AgWx,beryljct,423,07MAY2019:02:30:00,49.1,12.82,46.4,47.9,48.6,49.5,47.9,50,54,46,0.601,31.0,31.9,29.7,1.798,1.4,176,15,3.5,-0.00014,-0.00018,55.4,55.9,10,0,0,41.1,14.08,0.00,0.00
15min,AgWx,beryljct,423,07MAY2019:02:45:00,48.7,12.82,45.1,45.2,47.0,49.1,45.2,57,63,47,0.637,32.5,34.2,29.7,4.275,1.7,285,77,6.3,-0.00012,-0.00014,55.3,55.9,10,0,0,40.7,14.08,0.00,0.00
15min,AgWx,beryljct,423,07MAY2019:03:00:00,48.2,12.81,45.8,45.4,45.2,45.8,44.7,62,64,57,0.608,32.8,33.8,31.3,2.587,3.8,334,11,5.4,0.00002,0.00005,55.2,55.8,10,0,0,39.6,14.08,0.00,0.00
15min,AgWx,beryljct,423,07MAY2019:03:15:00,47.7,12.82,45.5,45.3,46.8,47.8,45.3,53,59,49,0.591,30.7,31.9,29.6,5.678,3.9,274,22,5.8,0.00006,0.00011,55.0,55.7,10,0,0,40.0,14.08,0.00,0.00
15min,AgWx,beryljct,423,07MAY2019:03:30:00,47.1,12.81,45.9,45.7,45.4,45.9,45.1,56,57,54,0.568,30.8,31.2,30.2,4.889,5.1,251,4.8,5.9,0.00011,0.00017,54.9,55.7,10,0,0,39.0,14.08,0.00,0.00
15min,AgWx,beryljct,423,07MAY2019:03:45:00,46.4,12.81,45.2,45.4,45.2,45.7,44.6,56,58,54,0.565,30.4,31.0,29.9,5.064,5.5,252,4.2,6.3,0.00013,0.00019,54.8,55.7,10,0,0,38.7,14.08,0.00,0.00
15min,AgWx,beryljct,423,07MAY2019:04:00:00,46.0,12.8,44.0,44.2,46.1,47.6,44.1,52,59,47,0.584,29.5,30.9,28.3,0.855,3.8,247,12,5.9,0.00007,0.00012,54.6,55.6,10,0,0,39.1,14.08,0.00,0.00
15min,AgWx,beryljct,423,07MAY2019:04:15:00,45.1,12.8,40.2,40.6,42.2,44.3,40.6,64,67,58,0.571,30.7,31.1,30.4,4.713,3.9,152,9.3,5.5,0.00001,0.00004,54.5,55.6,10,0,0,35.7,14.08,0.00,0.00
15min,AgWx,beryljct,423,07MAY2019:04:30:00,43.8,12.79,42.8,42.1,40.3,42.1,38.9,67,73,60,0.549,30.3,31.0,29.4,6.094,6.1,159,10,8.0,0.00007,0.00010,54.4,55.5,10,0,0,36.6,14.08,0.00,0.00
15min,AgWx,beryljct,423,07MAY2019:04:45:00,43.4,12.79,43.4,44.0,42.9,44.2,42.1,59,60,57,0.557,29.5,30.2,29.2,5.196,6.1,174,9.0,10.3,0.00013,0.00018,54.2,55.5,10,0,0,37.9,14.08,0.00,0.00
15min,AgWx,beryljct,423,07MAY2019:05:00:00,43.4,12.79,44.8,44.7,44.5,45.0,43.7,57,58,56,0.566,30.1,30.3,29.6,4.604,5.8,182,6.3,7.1,0.00048,0.00085,54.1,55.4,10,0,0,37.6,14.08,0.00,0.00
15min,AgWx,beryljct,423,07MAY2019:05:15:00,43.5,12.77,43.9,42.2,43.7,44.7,42.0,59,65,56,0.590,30.4,31.3,30.0,3.617,3.5,191,59,5.0,0.00030,0.00052,53.9,55.3,10,0,0,36.3,14.08,0.00,0.00
15min,AgWx,beryljct,423,07MAY2019:05:30:00,43.4,12.79,43.8,44.3,45.5,47.4,42.3,55,64,50,0.581,30.3,31.3,29.6,0.833,2.5,296,19,5.0,0.00027,0.00046,53.8,55.3,10,1,0,37.1,14.08,0.00,0.00
15min,AgWx,beryljct,423,07MAY2019:05:45:00,43.1,12.79,39.2,40.2,42.9,44.3,40.2,61,65,58,0.542,30.4,31.0,29.0,3.749,2.2,203,66,4.7,0.00023,0.00037,53.7,55.2,10,9,0,35.3,14.08,0.00,0.00
15min,AgWx,beryljct,423,07MAY2019:06:00:00,42.2,12.8,36.9,36.5,36.9,40.0,35.9,75,79,65,0.567,29.8,30.4,29.1,1.118,2.6,325,7.0,4.5,0.00020,0.00030,53.5,55.2,10,17,0,35.7,14.08,0.00,0.00
15min,AgWx,beryljct,423,07MAY2019:06:15:00,41.1,12.8,41.2,40.2,39.0,40.9,36.5,69,78,63,0.541,29.7,30.4,28.9,1.907,1.1,339,1.5,1.9,0.00018,0.00024,53.4,55.1,10,21,0,37.7,14.08,0.00,0.00
15min,AgWx,beryljct,423,07MAY2019:06:30:00,41.0,12.81,41.8,40.6,40.5,41.5,39.0,66,74,59,0.624,29.9,32.6,28.3,2.368,1.7,326,9.8,3.1,0.00052,0.00064,53.2,55.1,10,84,0,44.3,14.08,0.00,0.00
15min,AgWx,beryljct,423,07MAY2019:06:45:00,42.0,12.8,44.6,44.4,43.0,44.4,40.7,70,73,64,0.722,33.8,36.2,31.2,0.855,2.3,247,22,3.8,0.00070,0.00085,53.1,55.0,10,124,0,53.8,14.08,0.00,0.00
15min,AgWx,beryljct,423,07MAY2019:07:00:00,43.4,12.81,46.4,46.3,45.0,46.3,44.4,72,79,65,0.693,36.7,38.6,35.2,0,0.5,211,32,2.2,0.00070,0.00077,53.0,54.9,10,130,0,57.7,14.08,0.00,0.00
15min,AgWx,beryljct,423,07MAY2019:07:15:00,45.2,12.83,51.0,50.7,48.0,50.7,46.2,64,69,59,0.771,36.5,38.1,34.7,0.789,0.6,239,48,2.7,0.00110,0.00121,52.8,54.9,10,214,0,65.4,14.08,0.00,0.00
15min,AgWx,beryljct,423,07MAY2019:07:30:00,48.7,12.89,51.8,52.0,52.5,53.4,50.7,55,68,49,0.905,36.8,42.2,34.4,1.885,1.4,326,38,2.9,0.00171,0.00194,52.7,54.8,10,315,0,83.0,14.08,0.00,0.00
15min,AgWx,beryljct,423,07MAY2019:07:45:00,52.3,12.95,53.2,53.4,52.4,53.5,51.3,61,72,50,0.760,39.1,43.0,35.1,1.074,1.7,82,21,3.8,0.00203,0.00228,52.6,54.8,10,380,0,85.9,14.07,0.00,0.00
15min,AgWx,beryljct,423,07MAY2019:08:00:00,55.7,13.1,56.4,56.1,54.9,56.5,53.4,48,56,40,0.639,35.5,38.6,32.1,0,0.4,113,34,1.8,0.00236,0.00256,52.5,54.7,10,433,0,98.5,14.07,0.00,0.00
15min,AgWx,beryljct,423,07MAY2019:08:15:00,58.7,13.33,56.0,56.6,56.3,56.8,56.1,43,49,41,0.686,34.3,37.2,32.7,3.573,2.5,297,37,4.3,0.00281,0.00325,52.4,54.6,10,481,0,96.1,14.07,0.00,0.00
15min,AgWx,beryljct,423,07MAY2019:08:30:00,60.8,13.51,55.9,55.6,56.5,57.9,55.4,47,53,40,0.750,36.3,39.2,32.5,4.187,2.6,144,88,4.9,0.00260,0.00302,52.3,54.6,10,427,0,90.5,14.07,0.00,0.00
15min,AgWx,beryljct,423,07MAY2019:08:45:00,61.7,13.91,57.6,56.8,56.5,56.9,55.7,53,58,45,0.881,39.6,42.3,35.1,3.201,4.3,115,11,6.6,0.00335,0.00391,52.2,54.5,10,581,0,89.8,14.07,0.00,0.00
15min,AgWx,beryljct,423,07MAY2019:09:00:00,62.8,14.25,57.1,57.7,57.3,58.0,56.9,52,59,49,0.805,40.1,43.2,37.9,3.99,4.0,126,15,6.0,0.00356,0.00412,52.2,54.4,10,610,0,94.2,14.06,0.00,0.00
15min,AgWx,beryljct,423,07MAY2019:09:15:00,64.1,14.2,60.6,59.0,58.3,59.1,57.6,49,54,42,0.807,39.0,42.3,35.1,2.499,3.1,123,37,5.5,0.00395,0.00450,52.2,54.4,10,672,0,98.3,14.06,0.00,0.00
15min,AgWx,beryljct,423,07MAY2019:09:30:00,65.3,14.19,61.5,61.6,61.0,61.8,59.0,42,47,38,0.797,37.9,39.5,36.0,10.87,9.0,266,30,15.1,0.00454,0.00566,52.2,54.3,10,714,0,89.4,14.06,0.00,0.00
15min,AgWx,beryljct,423,07MAY2019:09:45:00,66.0,14.16,62.7,62.1,61.9,62.2,61.6,41,45,37,0.791,37.9,40.5,35.2,7.432,9.8,260,12,14.2,0.00487,0.00612,52.2,54.3,10,757,0,85.9,14.06,0.00,0.00
15min,AgWx,beryljct,423,07MAY2019:10:00:00,66.6,14.21,62.5,62.6,62.5,63.1,62.0,39,44,36,0.764,37.4,40.8,35.1,9.23,10.0,269,16,14.7,0.00514,0.00645,52.2,54.2,10,797,0,87.8,14.06,0.00,0.00
15min,AgWx,beryljct,423,07MAY2019:10:15:00,67.3,14.2,63.5,63.1,63.1,63.7,62.6,38,43,34,0.723,37.2,40.3,34.3,9.73,9.3,261,19,13.1,0.00545,0.00675,52.3,54.1,10,850,0,89.8,14.05,0.00,0.00
15min,AgWx,beryljct,423,07MAY2019:10:30:00,68.0,14.15,63.5,64.2,63.9,64.8,63.2,39,43,34,0.750,38.2,41.5,34.7,12.12,8.9,255,12,14.1,0.00569,0.00697,52.4,54.1,10,887,0,91.7,14.05,0.00,0.00
15min,AgWx,beryljct,423,07MAY2019:10:45:00,68.7,14.1,64.5,64.0,64.2,64.6,63.8,37,40,32,0.692,37.7,39.6,33.7,8.18,9.2,264,16,15.0,0.00580,0.00715,52.5,54.1,10,897,0,91.0,14.05,0.00,0.00
15min,AgWx,beryljct,423,07MAY2019:11:00:00,69.2,14.19,64.6,64.5,64.6,65.3,63.8,37,42,32,0.691,37.6,41.5,34.2,3.617,7.9,280,18,14.5,0.00595,0.00722,52.7,54.0,10,922,0,94.1,14.05,0.00,0.00
15min,AgWx,beryljct,423,07MAY2019:11:15:00,70.0,14.1,65.4,65.4,65.4,66.2,64.6,35,42,31,0.712,36.9,42.2,33.7,4.779,6.4,273,29,12.1,0.00589,0.00704,52.9,54.0,10,897,0,98.0,14.05,0.00,0.00
15min,AgWx,beryljct,423,07MAY2019:11:30:00,70.8,13.7,67.1,66.2,65.8,66.3,65.3,34,42,29,0.680,36.5,42.3,32.9,4.099,6.9,264,26,11.7,0.00632,0.00756,53.1,54.0,10,977,0,99.3,14.05,0.00,0.00
15min,AgWx,beryljct,423,07MAY2019:11:45:00,71.6,13.65,66.1,67.1,66.7,67.4,65.4,34,39,28,0.886,37.2,41.4,31.6,6.818,8.4,241,37,13.5,0.00613,0.00752,53.3,53.9,10,901,0,97.1,14.05,0.00,0.00
15min,AgWx,beryljct,423,07MAY2019:12:00:00,72.0,13.66,64.1,64.7,66.1,67.2,64.7,33,39,27,0.768,35.8,41.4,31.0,6.182,8.6,267,22,16.1,0.00577,0.00718,53.5,53.9,10,838,0,93.2,14.04,0.00,0.00
15min,AgWx,beryljct,423,07MAY2019:12:15:00,71.1,13.71,63.2,63.4,64.0,64.6,63.4,35,41,29,0.590,35.6,39.4,30.6,14.01,10.4,263,20,24.3,0.00355,0.00490,53.8,53.9,10,382,0,74.6,14.05,0.00,0.00
15min,AgWx,beryljct,423,07MAY2019:12:30:00,70.7,13.69,66.0,66.5,65.7,67.3,63.4,31,38,26,0.695,34.4,41.0,29.0,11.66,6.7,274,27,19.1,0.00613,0.00737,54.1,53.9,10,933,0,95.5,14.04,0.00,0.00
15min,AgWx,beryljct,423,07MAY2019:12:45:00,70.8,13.72,63.5,64.0,64.9,66.4,64.0,36,42,31,0.696,37.4,41.2,34.4,10.92,9.1,284,17,15.9,0.00388,0.00514,54.4,53.9,10,466,0,79.0,14.04,0.00,0.00
15min,AgWx,beryljct,423,07MAY2019:13:00:00,69.4,13.7,63.0,63.0,63.3,64.0,62.6,36,42,32,0.662,35.9,39.2,33.0,7.607,10.0,282,18,16.1,0.00328,0.00455,54.7,54.0,10,342,0,70.2,14.05,0.01,0.00
15min,AgWx,beryljct,423,07MAY2019:13:15:00,67.9,13.77,59.5,60.1,61.9,64.0,60.1,35,42,29,0.687,33.8,39.5,30.7,10.81,9.0,4.6,33,17.6,0.00284,0.00399,54.9,54.0,10,271,0,67.2,14.05,0.00,0.00
15min,AgWx,beryljct,423,07MAY2019:13:30:00,66.5,13.79,59.4,59.5,59.7,60.1,59.4,41,44,38,0.746,36.2,37.8,34.6,8.33,11.1,36,12,16.2,0.00311,0.00430,55.2,54.1,10,361,0,67.2,14.05,0.00,0.00
15min,AgWx,beryljct,423,07MAY2019:13:45:00,65.4,13.82,60.7,60.5,59.7,60.5,59.3,44,49,41,0.879,37.5,41.2,35.9,5.064,8.1,52,11,12.0,0.00279,0.00372,55.4,54.1,10,341,0,68.3,14.05,0.00,0.00
15min,AgWx,beryljct,423,07MAY2019:14:00:00,65.6,13.8,60.1,61.2,61.8,62.5,60.5,42,49,37,0.850,38.4,42.0,34.7,5.13,6.4,67,27,9.8,0.00323,0.00410,55.6,54.2,10,437,0,75.5,14.05,0.00,0.00
15min,AgWx,beryljct,423,07MAY2019:14:15:00,65.4,13.34,61.6,61.3,61.7,63.3,60.0,37,51,30,0.703,35.1,42.5,31.2,5.02,3.9,56,51,9.3,0.00144,0.00200,55.8,54.2,10,123,0,65.5,14.05,0.00,0.00
15min,AgWx,beryljct,423,07MAY2019:14:30:00,64.6,13.84,59.0,59.5,60.6,61.8,59.5,44,54,35,0.936,38.4,42.9,33.5,3.661,3.3,116,16,5.7,0.00121,0.00164,56.0,54.3,10,114,0,63.2,14.05,0.01,0.00
15min,AgWx,beryljct,423,07MAY2019:14:45:00,63.9,13.24,58.3,58.5,59.6,61.3,58.3,47,58,38,0.818,39.1,44.6,34.8,6.072,3.8,44,29,8.8,0.00143,0.00189,56.1,54.4,10,147,21,70.2,14.06,0.00,0.00
15min,AgWx,beryljct,423,07MAY2019:15:00:00,62.7,13.12,56.9,57.0,57.4,58.5,57.0,55,58,49,0.891,41.2,42.7,39.2,2.938,4.5,92,14,6.8,0.00088,0.00130,56.2,54.5,10,60,51,65.5,14.06,0.00,0.00
15min,AgWx,beryljct,423,07MAY2019:15:15:00,60.7,13,58.3,58.1,57.1,58.1,56.2,58,63,50,0.818,42.6,44.4,39.4,14.25,6.2,2.5,28,14.3,0.00087,0.00135,56.3,54.5,10,49,86,72.0,14.06,0.00,0.00
15min,AgWx,beryljct,423,07MAY2019:15:30:00,59.3,13.11,56.3,56.0,56.5,58.2,55.6,55,60,49,0.905,40.6,42.1,39.2,11.75,14.4,329,15,21.4,0.00189,0.00285,56.4,54.6,10,150,52,66.3,14.06,0.00,0.00
15min,AgWx,beryljct,423,07MAY2019:15:45:00,59.2,13.39,58.8,58.7,57.8,58.7,56.0,55,59,48,0.805,41.5,43.1,39.0,9.58,10.0,313,12,13.9,0.00240,0.00323,56.5,54.7,10,341,14,67.6,14.07,0.00,0.00
15min,AgWx,beryljct,423,07MAY2019:16:00:00,60.3,13.84,60.0,59.9,58.8,59.9,58.2,49,54,44,0.873,39.7,41.7,37.6,3.793,5.0,299,21,10.1,0.00213,0.00272,56.5,54.8,10,322,0,68.4,14.07,0.00,0.00
15min,AgWx,beryljct,423,07MAY2019:16:15:00,61.8,13.84,59.3,59.5,60.0,60.4,59.5,48,52,42,0.827,40.3,42.0,36.7,9.82,6.4,235,20,13.0,0.00225,0.00296,56.5,54.8,10,330,0,70.3,14.07,0.00,0.00
15min,AgWx,beryljct,423,07MAY2019:16:30:00,62.4,13.83,59.6,59.5,59.4,59.7,59.2,48,53,44,0.859,39.6,42.4,37.4,7.541,8.4,213,12,12.2,0.00224,0.00309,56.5,54.9,10,314,0,67.0,14.07,0.00,0.00
15min,AgWx,beryljct,423,07MAY2019:16:45:00,62.3,13.19,55.0,56.0,58.7,59.5,56.0,49,64,44,0.975,39.7,43.9,37.8,5.831,8.2,189,16,14.6,0.00145,0.00222,56.6,54.9,10,96,0,60.7,14.07,0.00,0.00
15min,AgWx,beryljct,423,07MAY2019:17:00:00,60.8,13.12,55.8,55.3,55.2,56.0,54.9,67,69,62,0.917,44.4,45.0,42.3,15.74,7.2,187,30,18.1,0.00067,0.00108,56.6,55.0,10,25,46,52.8,14.07,0.01,0.00
15min,AgWx,beryljct,423,07MAY2019:17:15:00,58.0,13.08,50.4,50.8,52.8,55.4,50.8,72,79,61,0.994,43.9,44.7,42.2,8.53,16.2,305,9.8,22.6,0.00086,0.00146,56.6,55.0,10,16,100,46.2,14.08,0.01,0.00
15min,AgWx,beryljct,423,07MAY2019:17:30:00,55.4,13.06,49.4,49.5,50.0,50.8,49.5,83,87,79,1.036,45.1,45.8,44.4,3.661,9.0,304,17,16.1,0.00036,0.00059,56.6,55.1,10,14,100,44.7,14.11,0.02,0.02
15min,AgWx,beryljct,423,07MAY2019:17:45:00,53.8,13.06,51.0,50.7,49.9,50.7,49.3,85,87,80,1.018,45.4,45.8,44.7,6.862,5.7,229,12,8.9,0.00032,0.00047,56.6,55.1,10,44,100,45.5,14.11,0.01,0.01
15min,AgWx,beryljct,423,07MAY2019:18:00:00,53.3,13.06,51.4,51.5,51.2,51.6,50.7,79,82,77,1.032,45.0,45.5,44.5,7.19,7.6,225,11,10.2,0.00037,0.00062,56.6,55.2,10,105,100,47.6,14.11,0.00,0.00
15min,AgWx,beryljct,423,07MAY2019:18:15:00,53.4,13.1,51.8,51.7,51.5,51.7,51.3,83,85,78,1.072,46.5,47.2,45.2,8.55,7.8,195,8.1,12.3,0.00026,0.00047,56.5,55.2,10,90,100,48.4,14.11,0.00,0.00
15min,AgWx,beryljct,423,07MAY2019:18:30:00,53.6,13.08,50.8,51.0,51.4,51.7,51.0,83,85,81,1.060,46.4,46.9,45.9,5.327,7.1,169,12,9.6,0.00015,0.00034,56.5,55.2,10,72,100,48.4,14.11,0.00,0.00
15min,AgWx,beryljct,423,07MAY2019:18:45:00,53.4,13.05,50.1,50.3,50.7,51.0,50.3,84,86,83,1.065,46.2,46.4,45.9,7.322,6.9,178,11,9.4,0.00013,0.00017,56.4,55.2,10,69,100,47.3,14.11,0.00,0.00
15min,AgWx,beryljct,423,07MAY2019:19:00:00,52.8,13.03,49.4,49.2,49.5,50.4,49.2,87,88,86,1.045,45.8,46.3,45.6,9.38,8.4,189,13,12.1,0.00007,0.00009,56.3,55.3,10,33,100,44.9,14.12,0.00,0.00
15min,AgWx,beryljct,423,07MAY2019:19:15:00,52.2,13,48.5,48.8,49.3,49.6,48.8,87,88,87,1.033,45.7,46.0,45.4,3.88,6.7,181,20,10.6,0.00002,0.00004,56.2,55.3,10,18,100,44.1,14.12,0.00,0.00
15min,AgWx,beryljct,423,07MAY2019:19:30:00,51.3,12.99,47.0,47.2,47.7,48.8,47.0,90,91,88,1.008,45.0,45.4,44.5,6.16,5.8,125,5.9,6.9,-0.00003,-0.00003,56.1,55.3,10,6,100,42.3,14.12,0.00,0.00
15min,AgWx,beryljct,423,07MAY2019:19:45:00,50.7,12.99,47.3,47.4,47.7,48.3,47.1,89,91,86,0.991,44.5,44.8,44.1,4.669,4.4,126,18,7.7,-0.00006,-0.00006,56.0,55.3,10,1,100,42.5,14.12,0.00,0.00
15min,AgWx,beryljct,423,07MAY2019:20:00:00,50.4,12.98,47.9,48.2,47.8,48.8,47.1,88,91,85,0.988,44.5,44.8,44.3,3.639,4.2,152,11,6.5,-0.00006,-0.00007,56.0,55.3,10,0,100,42.9,14.12,0.00,0.00
15min,AgWx,beryljct,423,07MAY2019:20:15:00,50.4,12.95,47.7,47.5,47.5,48.2,47.0,90,92,86,1.010,44.7,45.2,44.3,0,2.8,72,43,4.1,-0.00011,-0.00013,55.9,55.3,10,0,100,43.1,14.12,0.00,0.00
15min,AgWx,beryljct,423,07MAY2019:20:30:00,50.4,12.95,50.0,49.8,48.0,49.8,47.2,91,94,86,1.043,45.5,46.4,44.8,8.42,5.8,271,38,14.8,-0.00005,-0.00006,55.8,55.3,10,0,100,43.7,14.13,0.01,0.00
15min,AgWx,beryljct,423,07MAY2019:20:45:00,50.4,12.93,48.3,48.4,49.0,50.0,48.3,88,91,85,1.031,45.5,45.9,45.3,0.986,5.1,5.3,32,10.7,-0.00004,-0.00004,55.7,55.3,10,0,100,43.8,14.15,0.02,0.02
15min,AgWx,beryljct,423,07MAY2019:21:00:00,49.8,12.93,47.2,46.9,47.6,48.4,46.9,90,92,88,0.999,44.8,45.3,44.6,1.403,3.8,70,17,5.7,-0.00008,-0.00010,55.6,55.3,10,0,100,41.8,14.15,0.00,0.00
15min,AgWx,beryljct,423,07MAY2019:21:15:00,49.1,12.92,46.7,46.4,46.3,47.0,45.8,92,94,91,0.989,44.3,44.8,43.6,3.858,3.3,162,25,5.3,-0.00011,-0.00013,55.5,55.3,10,0,100,39.9,14.15,0.00,0.00
15min,AgWx,beryljct,423,07MAY2019:21:30:00,48.3,12.92,46.7,45.6,45.6,46.4,45.0,93,94,92,0.973,43.6,44.3,43.2,3.924,3.5,211,74,6.3,-0.00010,-0.00012,55.4,55.3,10,0,100,39.4,14.15,0.00,0.00
15min,AgWx,beryljct,423,07MAY2019:21:45:00,48.1,12.9,45.7,45.8,46.4,46.9,45.7,92,94,90,0.976,44.1,44.4,43.5,3.793,1.6,295,68,3.9,-0.00015,-0.00021,55.3,55.3,10,0,100,40.7,14.15,0.00,0.00
15min,AgWx,beryljct,423,07MAY2019:22:00:00,47.9,12.89,46.9,46.7,45.5,46.7,45.0,95,96,93,1.013,44.0,45.0,43.4,2.477,1.7,244,59,3.3,-0.00016,-0.00021,55.2,55.3,10,0,100,40.2,14.15,0.00,0.00
15min,AgWx,beryljct,423,07MAY2019:22:15:00,47.9,12.88,45.9,45.9,46.4,46.9,45.9,93,94,92,0.991,44.5,45.0,44.0,1.491,1.5,236,89,3.0,-0.00016,-0.00022,55.1,55.3,10,0,100,40.5,14.15,0.00,0.00
15min,AgWx,beryljct,423,07MAY2019:22:30:00,47.7,12.88,45.3,45.3,45.7,46.0,45.3,95,95,94,0.974,44.2,44.6,43.9,2.543,1.6,158,26,2.9,-0.00016,-0.00022,55.0,55.3,10,0,100,40.0,14.15,0.00,0.00
15min,AgWx,beryljct,423,07MAY2019:22:45:00,47.6,12.86,47.1,46.4,45.5,46.4,44.7,95,97,93,0.993,44.2,44.9,43.4,0.373,1.3,354,22,3.2,-0.00017,-0.00024,54.9,55.3,10,0,100,40.1,14.15,0.00,0.00
15min,AgWx,beryljct,423,07MAY2019:23:00:00,47.5,12.85,45.5,45.5,46.2,46.9,45.5,93,94,90,0.974,44.2,44.7,43.8,0,0.8,283,33,3.0,-0.00019,-0.00028,54.8,55.2,10,0,100,40.2,14.15,0.00,0.00
15min,AgWx,beryljct,423,07MAY2019:23:15:00,47.2,12.86,45.5,45.3,45.7,46.0,45.3,94,96,93,0.966,44.1,44.7,43.6,1.907,1.0,317,34,2.2,-0.00018,-0.00026,54.7,55.2,10,0,100,39.0,14.15,0.00,0.00
15min,AgWx,beryljct,423,07MAY2019:23:30:00,46.5,12.85,44.5,43.7,44.2,45.3,43.0,95,97,93,0.934,42.9,44.5,41.4,2.324,2.5,138,54,3.8,-0.00013,-0.00017,54.6,55.2,10,0,100,37.3,14.15,0.00,0.00
15min,AgWx,bigpiney,439,07MAY2019:00:00:00,46.6,12.71,41.4,41.6,42.3,42.9,41.6,75,76,73,0.670,34.9,35.3,34.3,3.529,3.9,227,21,5.5,0.00009,0.00013,42.0,36.6,54,0,0,0.0,1.41,0.00,0.00
15min,AgWx,bigpiney,439,07MAY2019:00:15:00,46.2,12.7,39.3,39.0,39.9,41.5,38.9,80,84,75,0.672,34.1,34.6,33.8,6.029,3.4,206,13,6.0,0.00005,0.00008,41.9,36.6,54,0,0,0.0,1.41,0.00,0.00
15min,AgWx,bigpiney,439,07MAY2019:00:30:00,45.5,12.7,39.3,39.2,39.4,39.7,39.0,81,83,80,0.669,34.1,34.4,33.7,3.244,4.7,232,4.7,6.6,0.00007,0.00009,41.8,36.6,54,0,0,0.0,1.41,0.00,0.00
15min,AgWx,bigpiney,439,07MAY2019:00:45:00,44.7,12.69,40.8,40.0,39.0,40.0,38.8,83,84,79,0.663,34.3,34.7,34.0,2.302,2.2,279,67,3.6,0.00002,0.00003,41.7,36.6,54,0,0,0.0,1.41,0.00,0.00
15min,AgWx,bigpiney,439,07MAY2019:01:00:00,44.1,12.68,41.4,40.7,40.4,40.9,39.9,80,83,78,0.674,34.7,35.3,34.0,3.244,3.7,35,18,6.2,0.00006,0.00008,41.6,36.6,54,0,0,0.0,1.41,0.00,0.00
15min,AgWx,bigpiney,439,07MAY2019:01:15:00,43.7,12.68,40.1,39.3,39.7,40.9,39.2,81,84,77,0.681,34.4,34.7,34.1,0.132,1.4,312,55,3.6,-0.00000,0.00001,41.6,36.7,54,0,0,0.0,1.41,0.00,0.00
15min,AgWx,bigpiney,439,07MAY2019:01:30:00,43.3,12.67,38.7,38.0,39.0,39.5,38.0,84,86,83,0.667,34.6,35.0,34.0,2.258,2.5,237,15,3.7,0.00002,0.00003,41.5,36.7,54,0,0,0.0,1.41,0.00,0.00
15min,AgWx,bigpiney,439,07MAY2019:01:45:00,42.8,12.65,38.9,37.8,38.2,38.7,37.5,85,87,84,0.652,34.2,34.9,33.1,1.71,2.1,257,18,2.9,0.00000,0.00001,41.4,36.6,54,0,0,0.0,1.41,0.00,0.00
15min,AgWx,bigpiney,439,07MAY2019:02:00:00,42.2,12.65,36.9,36.7,37.6,38.6,35.4,83,87,80,0.631,33.0,34.1,30.2,2.872,2.8,242,12,5.3,0.00003,0.00004,41.3,36.6,54,0,0,0.0,1.41,0.00,0.00
15min,AgWx,bigpiney,439,07MAY2019:02:15:00,41.4,12.63,36.3,36.4,36.2,36.7,35.9,86,87,85,0.617,32.5,33.2,32.0,3.836,4.1,232,7.7,4.8,0.00003,0.00004,41.2,36.6,54,0,0,0.0,1.41,0.00,0.00
15min,AgWx,bigpiney,439,07MAY2019:02:30:00,40.7,12.63,35.0,34.9,35.1,36.3,34.8,86,87,84,0.589,31.4,32.1,30.9,3.661,4.1,225,4.3,5.0,0.00003,0.00004,41.1,36.6,54,0,0,0.0,1.41,0.00,0.00
15min,AgWx,bigpiney,439,07MAY2019:02:45:00,40.1,12.62,34.5,34.5,35.0,35.4,34.5,86,87,85,0.581,31.2,31.7,30.8,3.442,4.4,225,4.1,5.3,0.00003,0.00005,41.1,36.6,54,0,0,0.0,1.41,0.00,0.00
15min,AgWx,bigpiney,439,07MAY2019:03:00:00,39.6,12.61,33.7,33.7,34.0,34.5,33.7,88,89,86,0.584,30.8,31.1,30.6,2.017,2.9,209,6.8,3.8,0.00001,0.00002,41.0,36.6,54,0,0,0.0,1.41,0.00,0.00
15min,AgWx,bigpiney,439,07MAY2019:03:15:00,39.4,12.59,35.1,34.8,34.0,34.9,33.5,90,91,89,0.614,31.4,32.3,30.6,3.135,3.1,219,8.4,4.3,0.00000,0.00001,40.9,36.6,54,0,0,0.0,1.41,0.00,0.00
15min,AgWx,bigpiney,439,07MAY2019:03:30:00,39.3,12.59,38.2,37.7,35.9,37.7,34.8,89,90,84,0.641,32.9,33.7,32.1,2.565,2.9,255,36,3.9,0.00001,0.00001,40.8,36.5,54,0,0,0.0,1.41,0.00,0.00
15min,AgWx,bigpiney,439,07MAY2019:03:45:00,39.5,12.58,36.8,36.7,36.9,37.7,36.6,86,88,83,0.641,33.0,33.4,32.6,3.157,1.8,253,31,3.2,-0.00000,0.00000,40.7,36.6,54,0,0,0.0,1.41,0.00,0.00
15min,AgWx,bigpiney,439,07MAY2019:04:00:00,39.5,12.56,34.8,34.5,35.4,36.8,34.2,87,88,86,0.591,31.8,33.2,30.6,1.14,2.9,224,7.9,4.0,0.00001,0.00002,40.6,36.6,54,0,0,0.0,1.41,0.00,0.00
15min,AgWx,bigpiney,439,07MAY2019:04:15:00,39.0,12.56,31.9,31.6,32.7,34.5,31.4,88,90,87,0.541,29.5,31.2,28.5,3.727,2.7,203,14,4.5,0.00001,0.00001,40.5,36.6,54,0,0,0.0,1.41,0.00,0.00
15min,AgWx,bigpiney,439,07MAY2019:04:30:00,38.3,12.55,35.0,34.4,32.7,34.4,31.6,91,92,89,0.594,30.2,31.7,29.0,3.705,2.4,276,45,3.9,-0.00001,-0.00000,40.4,36.6,54,0,0,0.0,1.41,0.00,0.00
15min,AgWx,bigpiney,439,07MAY2019:04:45:00,37.6,12.54,34.7,33.7,33.3,34.5,32.7,88,90,86,0.587,30.2,31.4,29.6,4.253,2.7,297,10,4.3,0.00000,0.00001,40.3,36.5,54,0,0,0.0,1.41,0.00,0.00
15min,AgWx,bigpiney,439,07MAY2019:05:00:00,37.2,12.53,33.9,33.5,34.2,35.0,33.5,88,90,86,0.566,30.9,31.8,30.1,3.244,3.8,283,10,5.0,0.00002,0.00003,40.2,36.6,54,1,0,0.0,1.41,0.00,0.00
15min,AgWx,bigpiney,439,07MAY2019:05:15:00,36.9,12.53,34.2,33.7,33.5,33.7,33.3,87,88,87,0.570,30.2,30.4,29.8,0.702,1.8,288,22,3.3,-0.00000,0.00000,40.1,36.5,54,4,0,0.0,1.41,0.00,0.00
15min,AgWx,bigpiney,439,07MAY2019:05:30:00,36.6,12.53,32.4,32.3,32.5,33.8,31.1,87,90,85,0.540,29.2,30.5,27.2,2.916,2.4,193,27,4.1,-0.00015,-0.00012,40.0,36.5,54,13,0,0.0,1.41,0.00,0.00
15min,AgWx,bigpiney,439,07MAY2019:05:45:00,36.2,12.56,31.4,30.8,31.1,32.3,30.3,88,90,87,0.526,28.0,29.0,27.1,3.31,3.6,206,8.7,4.6,-0.00004,-0.00000,39.9,36.5,54,30,0,0.0,1.41,0.00,0.00
15min,AgWx,bigpiney,439,07MAY2019:06:00:00,36.2,12.61,36.7,36.1,33.7,36.1,30.8,91,92,89,0.636,31.3,33.1,28.4,1.644,1.6,250,23,4.1,0.00001,0.00003,39.8,36.4,54,93,0,0.0,1.41,0.00,0.00
15min,AgWx,bigpiney,439,07MAY2019:06:15:00,36.8,12.61,36.0,35.9,35.9,36.2,35.5,88,89,87,0.628,32.8,33.2,32.4,2.302,2.2,230,14,3.3,0.00018,0.00023,39.7,36.5,54,65,0,0.0,1.41,0.00,0.00
15min,AgWx,bigpiney,439,07MAY2019:06:30:00,37.6,12.7,36.1,35.7,35.6,36.0,35.3,89,90,88,0.635,32.8,33.1,32.4,3.047,2.6,198,9.7,3.2,0.00030,0.00035,39.6,36.4,54,96,0,0.0,1.41,0.00,0.00
15min,AgWx,bigpiney,439,07MAY2019:06:45:00,38.4,12.86,38.8,38.0,36.8,38.0,35.7,89,90,87,0.676,33.9,34.8,33.0,3.069,2.9,188,9.5,3.6,0.00048,0.00055,39.5,36.4,54,154,0,0.0,1.41,0.00,0.00
15min,AgWx,bigpiney,439,07MAY2019:07:00:00,39.6,13.11,40.3,39.9,39.0,40.1,38.1,86,88,82,0.685,35.2,35.7,34.6,3.551,3.3,138,22,4.3,0.00073,0.00084,39.4,36.3,54,214,0,0.0,1.41,0.00,0.00
15min,AgWx,bigpiney,439,07MAY2019:07:15:00,40.9,13.21,40.7,40.3,40.0,40.4,39.7,83,83,82,0.705,35.1,35.6,34.5,3.047,2.9,109,15,5.0,0.00081,0.00093,39.3,36.3,54,201,0,0.0,1.41,0.00,0.00
15min,AgWx,bigpiney,439,07MAY2019:07:30:00,42.2,13.38,41.2,40.9,40.5,41.1,40.2,83,84,82,0.718,35.8,36.6,35.2,4.099,3.8,111,8.4,5.3,0.00093,0.00107,39.2,36.3,54,224,0,0.0,1.41,0.00,0.00
15min,AgWx,bigpiney,439,07MAY2019:07:45:00,43.6,13.81,42.9,42.7,41.8,42.9,40.8,81,83,77,0.714,36.4,37.5,35.7,1.732,2.3,102,18,4.5,0.00174,0.00191,39.1,36.3,54,434,0,0.0,1.41,0.00,0.00
15min,AgWx,bigpiney,439,07MAY2019:08:00:00,45.7,14.18,44.9,44.2,43.5,44.2,42.7,76,78,75,0.740,36.6,37.6,35.5,2.302,2.1,78,16,4.3,0.00191,0.00210,39.0,36.3,54,442,0,0.0,1.41,0.00,0.00